GW3607 Weather Reports


Display with metric or nautical units.
time (UTC)temp
F
wind
direction
speed
MPH
gust
MPH
rain 1hr
in
rain 24hr
in
rain mn
in
humidity
%
barometer
mb
20260506123536 60 116 4.0 17.0 0.00 0.00 0.00 62 1029.1
20260506123047 60 103 5.0 17.0 0.00 0.00 0.00 62 1028.9
20260506122537 60 77 6.0 15.0 0.00 0.00 0.00 62 1028.9
20260506122036 60 122 6.0 15.0 0.00 0.00 0.00 63 1029.1
20260506121547 60 106 5.0 15.0 0.00 0.00 0.00 63 1029.1
20260506121036 60 121 4.0 12.0 0.00 0.00 0.00 63 1029.1
20260506120536 60 96 5.0 15.0 0.00 0.00 0.00 64 1029.0
20260506120050 60 78 4.0 15.0 0.00 0.00 0.00 64 1028.9
20260506115535 60 136 3.0 11.0 0.00 0.00 0.00 64 1029.0
20260506115036 60 66 3.0 11.0 0.00 0.00 0.00 65 1029.1
20260506114542 60 120 3.0 11.0 0.00 0.00 0.00 65 1028.9
20260506114035 60 36 2.0 8.0 0.00 0.00 0.00 65 1028.9
20260506113535 60 124 1.0 5.0 0.00 0.00 0.00 66 1028.9
20260506113100 60 156 2.0 7.0 0.00 0.00 0.00 66 1029.0
20260506112537 60 97 1.0 7.0 0.00 0.00 0.00 65 1028.8
20260506112036 60 119 1.0 7.0 0.00 0.00 0.00 66 1028.9
20260506111538 60 0 0.0 4.0 0.00 0.00 0.00 66 1028.8
20260506111036 60 0 1.0 5.0 0.00 0.00 0.00 66 1028.7
20260506110536 60 146 0.0 5.0 0.00 0.00 0.00 66 1028.7
20260506110048 60 83 1.0 9.0 0.00 0.00 0.00 66 1028.7
20260506105536 60 77 1.0 9.0 0.00 0.00 0.00 65 1028.7
20260506105036 61 118 1.0 9.0 0.00 0.00 0.00 65 1028.7
20260506104610 61 116 1.0 4.0 0.00 0.00 0.00 65 1028.7
20260506104035 61 104 1.0 3.0 0.00 0.00 0.00 65 1028.7
20260506103536 61 149 0.0 4.0 0.00 0.00 0.00 65 1028.7
20260506103042 61 137 1.0 4.0 0.00 0.00 0.00 65 1028.7
20260506102536 61 0 0.0 4.0 0.00 0.00 0.00 65 1028.6
20260506102036 61 0 0.0 4.0 0.00 0.00 0.00 66 1028.6
20260506101549 61 0 0.0 4.0 0.00 0.00 0.00 66 1028.6
20260506101036 61 0 0.0 4.0 0.00 0.00 0.00 66 1028.5
20260506100536 61 131 0.0 4.0 0.00 0.00 0.00 66 1028.5
20260506100046 61 0 0.0 4.0 0.00 0.00 0.00 66 1028.5
20260506095536 62 130 1.0 4.0 0.00 0.00 0.00 65 1028.4
20260506095035 62 153 0.0 4.0 0.00 0.00 0.00 65 1028.4
20260506094540 62 0 0.0 4.0 0.00 0.00 0.00 65 1028.3
20260506094035 62 162 1.0 4.0 0.00 0.00 0.00 64 1028.3
20260506093537 63 0 0.0 2.0 0.00 0.00 0.00 64 1028.3
20260506093043 63 123 0.0 3.0 0.00 0.00 0.00 64 1028.2
20260506092536 63 0 0.0 3.0 0.00 0.00 0.00 64 1028.1
20260506092036 63 139 0.0 4.0 0.00 0.00 0.00 64 1028.1
20260506091539 63 118 0.0 5.0 0.00 0.00 0.00 63 1028.0
20260506091038 64 156 0.0 6.0 0.00 0.00 0.00 63 1028.0
20260506090536 64 116 1.0 6.0 0.00 0.00 0.00 62 1028.0
20260506090048 64 0 0.0 4.0 0.00 0.00 0.00 61 1028.0
20260506085535 65 121 0.0 4.0 0.00 0.00 0.00 62 1028.0
20260506085036 65 0 0.0 4.0 0.00 0.00 0.00 62 1027.9
20260506084555 65 0 0.0 4.0 0.00 0.00 0.00 61 1027.9
20260506084036 66 0 1.0 3.0 0.00 0.00 0.00 61 1028.0
20260506083536 66 0 0.0 3.0 0.00 0.00 0.00 62 1028.0
20260506083047 66 0 0.0 5.0 0.00 0.00 0.00 61 1028.0
20260506082536 67 0 0.0 5.0 0.00 0.00 0.00 60 1028.0
20260506082035 67 139 2.0 5.0 0.00 0.00 0.00 60 1028.0
20260506081542 68 166 1.0 4.0 0.00 0.00 0.00 58 1028.0
20260506081036 69 180 1.0 4.0 0.00 0.00 0.00 58 1027.9
20260506080538 69 117 1.0 9.0 0.00 0.00 0.00 57 1027.8
20260506073048 70 79 5.0 9.0 0.00 0.00 0.00 54 1027.8
20260506072536 71 192 0.0 13.0 0.00 0.00 0.00 54 1027.8
20260506072036 70 52 3.0 13.0 0.00 0.00 0.00 54 1027.8
20260506071545 70 84 3.0 13.0 0.00 0.00 0.00 53 1027.9
20260506071036 70 63 4.0 14.0 0.00 0.00 0.00 54 1027.8
20260506070537 70 48 2.0 14.0 0.00 0.00 0.00 54 1027.9
20260506062036 70 12 2.0 10.0 0.00 0.00 0.00 55 1027.8
20260506061539 71 62 3.0 13.0 0.00 0.00 0.00 54 1027.9
20260506061037 71 104 3.0 14.0 0.00 0.00 0.00 55 1028.0
20260506060538 69 49 3.0 14.0 0.00 0.00 0.00 55 1028.0
20260506051036 70 45 4.0 13.0 0.00 0.00 0.00 57 1028.2
20260506050537 70 22 2.0 9.0 0.00 0.00 0.00 57 1028.2
20260506045036 70 31 3.0 8.0 0.00 0.00 0.00 58 1028.3
20260506044550 69 355 1.0 7.0 0.00 0.00 0.00 58 1028.4
20260506044036 69 49 2.0 10.0 0.00 0.00 0.00 59 1028.5
20260506043536 69 22 2.0 10.0 0.00 0.00 0.00 59 1028.6
20260506043052 68 72 4.0 11.0 0.00 0.00 0.00 60 1028.7
20260506042536 68 106 4.0 12.0 0.00 0.00 0.00 59 1028.7
20260506042037 68 34 5.0 16.0 0.00 0.00 0.00 60 1028.7
20260506041553 67 81 8.0 16.0 0.00 0.00 0.00 60 1028.8
20260506041035 68 124 6.0 16.0 0.00 0.00 0.00 60 1028.8
20260506040535 68 75 5.0 16.0 0.00 0.00 0.00 61 1028.9
20260506040047 67 59 7.0 12.0 0.00 0.00 0.00 60 1029.0
20260506035536 68 95 4.0 16.0 0.00 0.00 0.00 60 1029.1
20260506035035 67 78 5.0 16.0 0.00 0.00 0.00 61 1029.0
20260506034547 66 79 7.0 16.0 0.00 0.00 0.00 62 1029.1
20260506034035 66 29 5.0 14.0 0.00 0.00 0.00 62 1029.1
20260506033536 66 60 7.0 14.0 0.00 0.00 0.00 63 1029.2
20260506033037 66 77 7.0 18.0 0.00 0.00 0.00 64 1029.2
20260506032536 65 124 6.0 18.0 0.00 0.00 0.00 65 1029.2
20260506032037 65 134 6.0 17.0 0.00 0.00 0.00 64 1029.2
20260506031550 65 81 8.0 17.0 0.00 0.00 0.00 64 1029.3
20260506031038 66 93 4.0 11.0 0.00 0.00 0.00 64 1029.4
20260506030535 65 72 4.0 11.0 0.00 0.00 0.00 64 1029.3
20260506030041 65 79 4.0 14.0 0.00 0.00 0.00 65 1029.3
20260506025535 65 100 5.0 14.0 0.00 0.00 0.00 66 1029.3
20260506025035 64 104 6.0 16.0 0.00 0.00 0.00 67 1029.2
20260506024546 64 81 5.0 16.0 0.00 0.00 0.00 67 1029.3
20260506024036 64 44 6.0 16.0 0.00 0.00 0.00 68 1029.4
20260506023537 63 88 7.0 17.0 0.00 0.00 0.00 67 1029.3
20260506023046 63 120 6.0 17.0 0.00 0.00 0.00 68 1029.4
20260506022536 63 104 6.0 16.0 0.00 0.00 0.00 69 1029.5
20260506022036 62 83 6.0 15.0 0.00 0.00 0.00 70 1029.4
20260506021553 62 110 6.0 15.0 0.00 0.00 0.00 70 1029.4
20260506021036 61 77 7.0 15.0 0.00 0.00 0.00 71 1029.5
20260506020536 61 101 7.0 15.0 0.00 0.00 0.00 72 1029.5
20260506020044 61 106 6.0 15.0 0.00 0.00 0.00 72 1029.5
20260506015536 60 51 7.0 16.0 0.00 0.00 0.00 73 1029.4
20260506015036 60 79 7.0 16.0 0.00 0.00 0.00 74 1029.5
20260506014540 59 104 8.0 16.0 0.00 0.00 0.00 73 1029.5
20260506014039 59 54 5.0 16.0 0.00 0.00 0.00 74 1029.5
20260506013535 58 81 8.0 15.0 0.00 0.00 0.00 75 1029.5
20260506013044 58 121 7.0 17.0 0.00 0.00 0.00 75 1029.6
20260506012537 58 147 8.0 17.0 0.00 0.00 0.00 76 1029.5
20260506012035 58 137 8.0 17.0 0.00 0.00 0.00 76 1029.6
20260506011544 57 91 10.0 18.0 0.00 0.00 0.00 76 1029.5
20260506011040 57 88 8.0 18.0 0.00 0.00 0.00 77 1029.4
20260506010536 56 92 10.0 18.0 0.00 0.00 0.00 77 1029.3
20260506010048 56 88 9.0 18.0 0.00 0.00 0.00 78 1029.3
20260506005536 56 77 10.0 18.0 0.00 0.00 0.00 78 1029.2
20260506005037 55 83 10.0 18.0 0.00 0.00 0.00 79 1029.1
20260506004540 55 70 8.0 18.0 0.00 0.00 0.00 80 1029.1
20260506004035 55 60 9.0 18.0 0.00 0.00 0.00 80 1029.1
20260506003535 54 58 9.0 18.0 0.00 0.00 0.00 80 1029.1
20260506003039 54 85 9.0 19.0 0.00 0.00 0.00 81 1029.0
20260506002535 54 56 7.0 19.0 0.00 0.00 0.00 82 1029.0
20260506002036 53 97 8.0 19.0 0.00 0.00 0.00 82 1028.8
20260506001540 53 102 7.0 18.0 0.00 0.00 0.00 83 1028.9
20260506001035 52 85 9.0 18.0 0.00 0.00 0.00 83 1028.7
20260506000536 52 89 7.0 17.0 0.00 0.00 0.00 83 1028.7
20260506000040 52 93 9.0 17.0 0.00 0.00 0.00 83 1028.6
20260505235535 52 104 7.0 16.0 0.00 0.00 0.00 83 1028.5
20260505235035 52 45 6.0 16.0 0.00 0.00 0.00 84 1028.5
20260505234607 51 160 6.0 18.0 0.00 0.00 0.00 84 1028.3
20260505234035 51 109 7.0 18.0 0.00 0.00 0.00 84 1028.4
20260505233534 51 103 7.0 16.0 0.00 0.00 0.00 84 1028.4
20260505233045 51 95 6.0 16.0 0.00 0.00 0.00 84 1028.3
20260505232538 51 101 7.0 15.0 0.00 0.00 0.00 84 1028.1
20260505232035 51 137 8.0 15.0 0.00 0.00 0.00 84 1028.3
20260505231541 51 111 8.0 17.0 0.00 0.00 0.00 84 1028.2
20260505231038 51 103 7.0 17.0 0.00 0.00 0.00 84 1028.1
20260505230535 51 126 8.0 17.0 0.00 0.00 0.00 84 1028.1
20260505230042 51 95 7.0 16.0 0.00 0.00 0.00 83 1027.9
20260505225537 51 115 8.0 16.0 0.00 0.00 0.00 83 1027.9
20260505225035 51 104 7.0 16.0 0.00 0.00 0.00 83 1027.9
20260505224549 51 72 8.0 16.0 0.00 0.00 0.00 83 1027.8
20260505224036 51 116 7.0 17.0 0.00 0.00 0.00 83 1027.9
20260505223539 51 72 6.0 17.0 0.00 0.00 0.00 83 1027.7
20260505223055 51 81 7.0 17.0 0.00 0.00 0.00 83 1027.7
20260505222536 51 112 6.0 19.0 0.00 0.00 0.00 83 1027.6
20260505222036 51 121 7.0 19.0 0.00 0.00 0.00 83 1027.6
20260505221548 51 96 5.0 15.0 0.00 0.00 0.00 82 1027.6
20260505221035 51 126 6.0 15.0 0.00 0.00 0.00 82 1027.6
20260505220535 51 121 7.0 20.0 0.00 0.00 0.00 82 1027.6
20260505220048 51 118 6.0 20.0 0.00 0.00 0.00 82 1027.5
20260505215535 51 94 8.0 16.0 0.00 0.00 0.00 82 1027.4
20260505215035 51 91 8.0 17.0 0.00 0.00 0.00 82 1027.4
20260505214554 51 68 6.0 17.0 0.00 0.00 0.00 82 1027.4
20260505214035 51 102 7.0 15.0 0.00 0.00 0.00 82 1027.6
20260505213536 52 114 6.0 12.0 0.00 0.00 0.00 82 1027.4
20260505213043 51 110 6.0 15.0 0.00 0.00 0.00 82 1027.3
20260505212536 52 91 6.0 15.0 0.00 0.00 0.00 82 1027.4
20260505212038 52 109 7.0 17.0 0.00 0.00 0.00 82 1027.4
20260505211549 52 98 7.0 17.0 0.00 0.00 0.00 82 1027.4
20260505211036 52 88 7.0 20.0 0.00 0.00 0.00 82 1027.1
20260505210535 52 60 7.0 20.0 0.00 0.00 0.00 81 1027.1
20260505210041 52 107 9.0 20.0 0.00 0.00 0.00 81 1027.2
20260505205536 52 20 9.0 18.0 0.00 0.00 0.00 81 1027.0
20260505205036 52 118 7.0 18.0 0.00 0.00 0.00 81 1027.1
20260505204549 52 93 8.0 18.0 0.00 0.00 0.00 81 1027.0
20260505204035 52 110 8.0 16.0 0.00 0.00 0.00 81 1027.1
20260505203535 52 103 6.0 13.0 0.00 0.00 0.00 81 1027.0
20260505203102 52 115 7.0 14.0 0.00 0.00 0.00 81 1027.1
20260505202536 52 107 6.0 14.0 0.00 0.00 0.00 81 1027.0
20260505202036 52 107 7.0 19.0 0.00 0.00 0.00 81 1026.8
20260505201543 52 71 7.0 19.0 0.00 0.00 0.00 80 1026.8
20260505201037 53 134 7.0 18.0 0.00 0.00 0.00 80 1026.9
20260505200536 53 90 8.0 18.0 0.00 0.00 0.00 80 1026.8
20260505200040 53 107 8.0 16.0 0.00 0.00 0.00 80 1026.8
20260505195539 53 118 7.0 17.0 0.00 0.00 0.00 80 1026.8
20260505195035 53 68 7.0 17.0 0.00 0.00 0.00 80 1027.0
20260505194542 53 126 6.0 13.0 0.00 0.00 0.00 79 1026.8
20260505194037 53 105 6.0 14.0 0.00 0.00 0.00 79 1026.7
20260505193535 53 69 6.0 14.0 0.00 0.00 0.00 79 1026.8
20260505193045 53 83 7.0 14.0 0.00 0.00 0.00 79 1026.8
20260505192538 53 77 6.0 15.0 0.00 0.00 0.00 79 1026.9
20260505192035 53 101 6.0 17.0 0.00 0.00 0.00 78 1026.9
20260505191550 53 123 7.0 17.0 0.00 0.00 0.00 78 1026.9
20260505191034 53 107 6.0 16.0 0.00 0.00 0.00 78 1026.8
20260505190535 53 149 7.0 16.0 0.00 0.00 0.00 77 1026.8
20260505190043 54 99 5.0 16.0 0.00 0.00 0.00 77 1026.7
20260505185539 54 112 6.0 16.0 0.00 0.00 0.00 77 1026.8
20260505185036 54 123 8.0 16.0 0.00 0.00 0.00 76 1026.7
20260505184547 54 77 6.0 15.0 0.00 0.00 0.00 76 1026.8
20260505184036 54 122 7.0 16.0 0.00 0.00 0.00 76 1026.7
20260505183537 54 105 6.0 16.0 0.00 0.00 0.00 76 1026.7
20260505183045 54 94 6.0 16.0 0.00 0.00 0.00 75 1026.7
20260505182538 54 110 6.0 16.0 0.00 0.00 0.00 75 1026.8
20260505182035 54 104 7.0 15.0 0.00 0.00 0.00 75 1026.8
20260505181540 54 81 8.0 16.0 0.00 0.00 0.00 74 1026.7
20260505181039 54 80 7.0 16.0 0.00 0.00 0.00 74 1026.7
20260505180539 55 91 8.0 16.0 0.00 0.00 0.00 74 1026.7
20260505180042 55 97 6.0 19.0 0.00 0.00 0.00 74 1026.7
20260505175537 55 145 10.0 19.0 0.00 0.00 0.00 74 1026.6
20260505175035 55 118 7.0 18.0 0.00 0.00 0.00 73 1026.6
20260505174544 55 111 6.0 18.0 0.00 0.00 0.00 73 1026.6
20260505174036 55 97 6.0 19.0 0.00 0.00 0.00 73 1026.5
20260505173535 55 88 8.0 19.0 0.00 0.00 0.00 73 1026.5
20260505173039 55 60 9.0 17.0 0.00 0.00 0.00 72 1026.5
20260505172535 55 88 7.0 17.0 0.00 0.00 0.00 72 1026.5
20260505172035 56 109 8.0 19.0 0.00 0.00 0.00 72 1026.5
20260505171540 56 103 8.0 19.0 0.00 0.00 0.00 72 1026.5
20260505171036 56 66 8.0 19.0 0.00 0.00 0.00 72 1026.4
20260505170535 56 109 8.0 19.0 0.00 0.00 0.00 71 1026.3
20260505170040 56 100 7.0 20.0 0.00 0.00 0.00 71 1026.3
20260505165535 56 79 7.0 20.0 0.00 0.00 0.00 71 1026.3
20260505165037 57 72 8.0 16.0 0.00 0.00 0.00 71 1026.3
20260505164540 57 72 6.0 16.0 0.00 0.00 0.00 70 1026.4
20260505164036 57 125 7.0 16.0 0.00 0.00 0.00 70 1026.3
20260505163537 57 131 7.0 16.0 0.00 0.00 0.00 70 1026.2
20260505163046 57 122 6.0 16.0 0.00 0.00 0.00 70 1026.3
20260505162539 57 118 6.0 18.0 0.00 0.00 0.00 70 1026.2
20260505162035 58 67 6.0 18.0 0.00 0.00 0.00 69 1026.2
20260505161546 58 91 6.0 18.0 0.00 0.00 0.00 69 1026.1
20260505161036 58 82 6.0 15.0 0.00 0.00 0.00 69 1026.2
20260505160535 58 116 8.0 15.0 0.00 0.00 0.00 68 1026.0
20260505153053 59 130 5.0 13.0 0.00 0.00 0.00 67 1026.1
20260505152536 59 139 5.0 13.0 0.00 0.00 0.00 66 1026.1
20260505152035 59 89 4.0 13.0 0.00 0.00 0.00 66 1026.2
20260505151545 59 119 4.0 13.0 0.00 0.00 0.00 66 1026.1
20260505151035 59 133 4.0 15.0 0.00 0.00 0.00 66 1026.2
20260505150535 59 120 3.0 15.0 0.00 0.00 0.00 67 1026.1
20260505140535 59 122 3.0 8.0 0.00 0.00 0.00 66 1026.4
20260505125035 60 104 1.0 4.0 0.00 0.00 0.00 65 1026.4
20260505124551 59 99 1.0 5.0 0.00 0.00 0.00 66 1026.4
20260505124035 60 71 1.0 5.0 0.00 0.00 0.00 65 1026.3